QPF
0.00 0.00 0.00 0.00 0.00 0.01 0.01 0.02 0.03 0.03 0.04 0.06 0.07 0.07 0.07 0.07 0.07 0.07 0.05 0.05 0.06 0.08 0.12 0.15 0.20 0.21 0.24 0.25 0.25 0.26 0.25 0.22 0.19 0.20 0.16 0.15 0.15 0.14 0.10 0.06 0.05 0.05 0.05
0.00 0.01 0.00 0.00 0.00 0.00 0.00 0.01 0.01 0.02 0.02 0.03 0.03 0.03 0.03 0.03 0.04 0.04 0.05 0.05 0.06 0.07 0.08 0.11 0.13 0.18 0.24 0.24 0.24 0.25 0.24 0.20 0.20 0.18 0.15 0.13 0.12 0.09 0.07 0.06 0.04 0.03 0.04
0.00 0.00 0.00 0.00 0.00 0.00 0.00 0.01 0.01 0.01 0.01 0.01 0.02 0.03 0.03 0.04 0.05 0.04 0.04 0.03 0.04 0.05 0.07 0.08 0.09 0.12 0.17 0.20 0.22 0.25 0.23 0.22 0.23 0.16 0.12 0.11 0.09 0.06 0.04 0.03 0.03 0.02 0.02
0.00 0.00 0.00 0.00 0.00 0.00 0.00 0.00 0.01 0.01 0.01 0.01 0.03 0.03 0.04 0.05 0.04 0.04 0.03 0.03 0.03 0.03 0.04 0.06 0.07 0.09 0.12 0.16 0.16 0.19 0.21 0.20 0.18 0.15 0.10 0.07 0.07 0.08 0.06 0.04 0.01 0.01 0.01
0.00 0.00 0.00 0.00 0.00 0.00 0.00 0.00 0.01 0.02 0.03 0.03 0.04 0.04 0.04 0.05 0.03 0.03 0.02 0.01 0.01 0.01 0.02 0.02 0.04 0.05 0.07 0.10 0.12 0.17 0.20 0.20 0.16 0.15 0.13 0.09 0.07 0.06 0.06 0.07 0.05 0.03 0.01
0.00 0.00 0.00 0.00 0.00 0.00 0.00 0.00 0.01 0.04 0.05 0.05 0.05 0.05 0.05 0.05 0.03 0.02 0.02 0.02 0.01 0.01 0.01 0.01 0.02 0.03 0.04 0.05 0.08 0.11 0.15 0.20 0.21 0.18 0.18 0.19 0.14 0.10 0.08 0.06 0.06 0.04 0.03
0.01 0.01 0.01 0.00 0.00 0.00 0.00 0.00 0.02 0.04 0.04 0.04 0.05 0.05 0.05 0.05 0.03 0.02 0.02 0.02 0.01 0.01 0.01 0.01 0.01 0.01 0.03 0.03 0.04 0.07 0.10 0.15 0.19 0.20 0.19 0.21 0.20 0.16 0.12 0.10 0.07 0.05 0.03
0.00 0.00 0.00 0.00 0.00 0.00 0.00 0.00 0.01 0.02 0.02 0.02 0.03 0.03 0.03 0.02 0.01 0.02 0.02 0.01 0.01 0.00 0.00 0.00 0.00 0.00 0.01 0.01 0.02 0.04 0.07 0.10 0.13 0.17 0.21 0.22 0.20 0.23 0.21 0.18 0.15 0.14 0.10
0.00 0.00 0.00 0.00 0.00 0.00 0.01 0.01 0.01 0.01 0.01 0.01 0.01 0.01 0.01 0.01 0.01 0.02 0.01 0.00 0.00 0.00 0.00 0.00 0.01 0.01 0.00 0.01 0.01 0.01 0.03 0.06 0.09 0.12 0.16 0.18 0.21 0.24 0.24 0.23 0.20 0.20 0.21
0.00 0.00 0.00 0.00 0.00 0.00 0.00 0.00 0.00 0.00 0.00 0.00 0.00 0.00 0.00 0.01 0.01 0.01 0.01 0.01 0.01 0.01 0.01 0.00 0.00 0.01 0.01 0.01 0.01 0.01 0.01 0.03 0.06 0.09 0.13 0.15 0.15 0.22 0.27 0.27 0.26 0.24 0.24
0.00 0.00 0.00 0.00 0.00 0.00 0.00 0.00 0.00 0.00 0.00 0.00 0.00 0.00 0.00 0.00 0.00 0.01 0.01 0.01 0.02 0.02 0.02 0.02 0.01 0.01 0.01 0.01 0.02 0.01 0.01 0.02 0.02 0.05 0.08 0.12 0.15 0.18 0.23 0.27 0.28 0.28 0.27
0.00 0.00 0.00 0.00 0.00 0.00 0.00 0.00 0.00 0.00 0.00 0.00 0.00 0.00 0.00 0.00 0.00 0.01 0.01 0.01 0.02 0.02 0.02 0.03 0.03 0.03 0.02 0.02 0.02 0.02 0.01 0.02 0.02 0.04 0.05 0.08 0.11 0.15 0.20 0.25 0.29 0.29 0.30
0.00 0.00 0.00 0.00 0.00 0.00 0.00 0.00 0.00 0.00 0.00 0.00 0.00 0.00 0.00 0.01 0.01 0.01 0.01 0.02 0.03 0.04 0.04 0.04 0.05 0.04 0.03 0.04 0.04 0.03 0.02 0.01 0.02 0.03 0.05 0.07 0.08 0.09 0.13 0.19 0.26 0.30 0.29
0.00 0.00 0.00 0.00 0.00 0.00 0.00 0.00 0.00 0.00 0.00 0.00 0.00 0.00 0.01 0.01 0.02 0.02 0.03 0.03 0.04 0.06 0.06 0.06 0.06 0.06 0.05 0.05 0.05 0.05 0.04 0.03 0.02 0.02 0.04 0.07 0.09 0.09 0.09 0.12 0.17 0.23 0.28
0.00 0.00 0.00 0.00 0.00 0.00 0.00 0.00 0.00 0.00 0.00 0.00 0.01 0.01 0.01 0.02 0.02 0.02 0.03 0.04 0.05 0.05 0.07 0.09 0.09 0.09 0.08 0.05 0.05 0.07 0.06 0.06 0.05 0.04 0.04 0.04 0.07 0.10 0.10 0.09 0.10 0.15 0.21
0.00 0.00 0.00 0.00 0.00 0.00 0.00 0.00 0.00 0.00 0.01 0.01 0.01 0.02 0.02 0.03 0.03 0.04 0.05 0.06 0.08 0.08 0.09 0.11 0.11 0.11 0.06 0.05 0.06 0.07 0.07 0.09 0.10 0.07 0.06 0.04 0.04 0.05 0.06 0.06 0.08 0.11 0.14
0.00 0.00 0.00 0.00 0.00 0.00 0.00 0.00 0.00 0.00 0.01 0.02 0.02 0.03 0.03 0.03 0.04 0.04 0.05 0.07 0.10 0.10 0.11 0.11 0.12 0.12 0.10 0.09 0.07 0.05 0.06 0.08 0.10 0.11 0.11 0.04 0.01 0.03 0.04 0.04 0.04 0.05 0.08
0.00 0.00 0.00 0.00 0.00 0.00 0.00 0.00 0.00 0.01 0.01 0.02 0.02 0.02 0.03 0.03 0.04 0.05 0.07 0.10 0.12 0.12 0.11 0.11 0.12 0.13 0.12 0.10 0.07 0.05 0.04 0.06 0.08 0.11 0.11 0.08 0.06 0.04 0.05 0.06 0.05 0.04 0.04
0.00 0.00 0.00 0.00 0.00 0.01 0.00 0.01 0.01 0.01 0.02 0.02 0.02 0.02 0.03 0.04 0.05 0.06 0.09 0.12 0.12 0.12 0.12 0.12 0.12 0.13 0.13 0.10 0.07 0.05 0.06 0.06 0.06 0.08 0.08 0.09 0.08 0.06 0.02 0.04 0.07 0.07 0.06
0.00 0.00 0.00 0.00 0.01 0.01 0.01 0.01 0.02 0.02 0.02 0.02 0.02 0.02 0.04 0.05 0.06 0.09 0.11 0.12 0.12 0.13 0.13 0.13 0.13 0.14 0.14 0.12 0.06 0.04 0.06 0.08 0.09 0.11 0.12 0.08 0.08 0.06 0.02 0.02 0.05 0.06 0.07
0.00 0.00 0.00 0.01 0.02 0.01 0.02 0.02 0.03 0.02 0.02 0.01 0.02 0.02 0.05 0.07 0.08 0.11 0.12 0.12 0.13 0.14 0.15 0.15 0.15 0.15 0.14 0.12 0.05 0.03 0.05 0.09 0.13 0.13 0.13 0.11 0.06 0.02 0.01 0.02 0.04 0.05 0.07
0.00 0.00 0.00 0.01 0.01 0.02 0.02 0.03 0.02 0.02 0.02 0.02 0.02 0.03 0.05 0.06 0.06 0.10 0.11 0.13 0.15 0.15 0.15 0.16 0.16 0.16 0.14 0.10 0.06 0.02 0.02 0.05 0.14 0.16 0.16 0.13 0.07 0.02 0.01 0.00 0.01 0.01 0.02
0.00 0.00 0.01 0.01 0.01 0.02 0.02 0.03 0.02 0.02 0.02 0.02 0.03 0.04 0.05 0.08 0.11 0.13 0.13 0.14 0.16 0.17 0.16 0.18 0.18 0.18 0.18 0.13 0.04 0.02 0.01 0.02 0.07 0.14 0.16 0.11 0.05 0.03 0.01 0.00 0.00 0.01 0.02
0.00 0.00 0.01 0.01 0.01 0.01 0.02 0.02 0.02 0.03 0.03 0.04 0.04 0.04 0.06 0.09 0.12 0.15 0.16 0.16 0.16 0.15 0.16 0.18 0.19 0.19 0.19 0.18 0.11 0.05 0.02 0.01 0.02 0.07 0.07 0.04 0.03 0.01 0.01 0.01 0.00 0.01 0.02
0.00 0.00 0.01 0.01 0.01 0.01 0.01 0.02 0.02 0.03 0.03 0.04 0.03 0.05 0.07 0.11 0.13 0.15 0.15 0.10 0.10 0.06 0.06 0.09 0.14 0.16 0.16 0.13 0.09 0.11 0.11 0.08 0.06 0.09 0.12 0.09 0.06 0.03 0.03 0.04 0.03 0.03 0.03
0.00 0.01 0.01 0.01 0.01 0.01 0.01 0.01 0.02 0.03 0.04 0.04 0.04 0.06 0.07 0.11 0.13 0.15 0.14 0.08 0.03 0.01 0.00 0.01 0.02 0.05 0.05 0.02 0.01 0.02 0.04 0.04 0.04 0.07 0.14 0.15 0.13 0.10 0.08 0.08 0.07 0.07 0.07
MSLP
1010.80 1011.10 1011.32 1011.44 1011.47 1011.42 1011.34 1011.25 1011.19 1011.17 1011.20 1011.25 1011.31 1011.35 1011.34 1011.26 1011.11 1010.92 1010.70 1010.50 1010.35 1010.28 1010.30 1010.42 1010.62 1010.87 1011.13 1011.35 1011.51 1011.58 1011.54 1011.41 1011.20 1010.94 1010.66 1010.38 1010.14 1009.94 1009.80 1009.72 1009.70 1009.74 1009.83
1010.72 1011.01 1011.23 1011.35 1011.38 1011.32 1011.23 1011.14 1011.08 1011.08 1011.15 1011.25 1011.36 1011.43 1011.42 1011.33 1011.14 1010.89 1010.60 1010.34 1010.15 1010.06 1010.10 1010.27 1010.54 1010.86 1011.17 1011.44 1011.61 1011.67 1011.60 1011.41 1011.14 1010.81 1010.46 1010.12 1009.82 1009.57 1009.37 1009.24 1009.15 1009.13 1009.18
1010.39 1010.64 1010.86 1011.00 1011.05 1011.02 1010.95 1010.88 1010.86 1010.91 1011.02 1011.18 1011.34 1011.45 1011.47 1011.38 1011.17 1010.87 1010.54 1010.23 1010.00 1009.90 1009.95 1010.14 1010.44 1010.80 1011.15 1011.43 1011.61 1011.66 1011.56 1011.34 1011.03 1010.67 1010.30 1009.94 1009.61 1009.33 1009.11 1008.93 1008.80 1008.72 1008.71
1009.92 1010.13 1010.35 1010.52 1010.60 1010.62 1010.59 1010.57 1010.59 1010.69 1010.85 1011.06 1011.27 1011.42 1011.48 1011.40 1011.19 1010.88 1010.53 1010.19 1009.93 1009.81 1009.84 1010.03 1010.33 1010.68 1011.04 1011.32 1011.50 1011.54 1011.43 1011.21 1010.91 1010.56 1010.20 1009.85 1009.54 1009.27 1009.04 1008.83 1008.67 1008.54 1008.46
1009.41 1009.61 1009.84 1010.04 1010.17 1010.24 1010.25 1010.27 1010.33 1010.46 1010.66 1010.90 1011.15 1011.34 1011.43 1011.39 1011.20 1010.90 1010.54 1010.19 1009.91 1009.76 1009.76 1009.92 1010.18 1010.51 1010.84 1011.11 1011.27 1011.31 1011.22 1011.03 1010.77 1010.47 1010.16 1009.87 1009.61 1009.37 1009.15 1008.94 1008.75 1008.57 1008.43
1008.98 1009.17 1009.43 1009.67 1009.85 1009.95 1010.00 1010.04 1010.11 1010.25 1010.46 1010.72 1010.98 1011.20 1011.32 1011.31 1011.16 1010.88 1010.54 1010.19 1009.90 1009.72 1009.68 1009.78 1009.99 1010.27 1010.55 1010.78 1010.94 1010.98 1010.93 1010.79 1010.59 1010.38 1010.16 1009.96 1009.77 1009.59 1009.40 1009.20 1008.99 1008.77 1008.56
1008.68 1008.90 1009.19 1009.47 1009.68 1009.81 1009.87 1009.91 1009.97 1010.08 1010.27 1010.51 1010.77 1011.00 1011.14 1011.16 1011.04 1010.80 1010.48 1010.14 1009.85 1009.64 1009.55 1009.59 1009.73 1009.94 1010.16 1010.36 1010.50 1010.56 1010.55 1010.48 1010.37 1010.26 1010.15 1010.05 1009.96 1009.85 1009.71 1009.53 1009.32 1009.07 1008.82
1008.55 1008.81 1009.14 1009.45 1009.68 1009.81 1009.87 1009.88 1009.90 1009.97 1010.10 1010.30 1010.53 1010.74 1010.88 1010.91 1010.82 1010.62 1010.33 1010.01 1009.71 1009.48 1009.35 1009.33 1009.40 1009.54 1009.70 1009.86 1009.98 1010.06 1010.09 1010.09 1010.08 1010.07 1010.08 1010.09 1010.09 1010.07 1009.99 1009.86 1009.66 1009.40 1009.12
1008.58 1008.90 1009.26 1009.59 1009.82 1009.94 1009.97 1009.93 1009.90 1009.90 1009.97 1010.10 1010.27 1010.44 1010.56 1010.60 1010.52 1010.34 1010.08 1009.78 1009.48 1009.24 1009.07 1009.00 1009.01 1009.08 1009.19 1009.31 1009.42 1009.51 1009.58 1009.64 1009.71 1009.79 1009.90 1010.01 1010.11 1010.18 1010.18 1010.10 1009.94 1009.71 1009.44
1008.76 1009.12 1009.50 1009.83 1010.05 1010.15 1010.13 1010.05 1009.95 1009.88 1009.87 1009.92 1010.02 1010.13 1010.22 1010.23 1010.16 1009.99 1009.74 1009.46 1009.17 1008.92 1008.73 1008.62 1008.59 1008.61 1008.68 1008.76 1008.85 1008.94 1009.03 1009.13 1009.26 1009.41 1009.60 1009.79 1009.98 1010.13 1010.21 1010.21 1010.12 1009.95 1009.72
1009.05 1009.44 1009.82 1010.13 1010.32 1010.38 1010.32 1010.19 1010.03 1009.89 1009.81 1009.78 1009.81 1009.85 1009.88 1009.86 1009.76 1009.59 1009.35 1009.08 1008.81 1008.56 1008.36 1008.24 1008.17 1008.16 1008.19 1008.24 1008.30 1008.37 1008.46 1008.58 1008.73 1008.93 1009.16 1009.41 1009.67 1009.89 1010.06 1010.16 1010.16 1010.08 1009.94
1009.41 1009.79 1010.14 1010.41 1010.56 1010.57 1010.48 1010.31 1010.11 1009.92 1009.78 1009.69 1009.64 1009.62 1009.58 1009.50 1009.37 1009.19 1008.95 1008.68 1008.42 1008.18 1007.99 1007.86 1007.78 1007.74 1007.74 1007.75 1007.78 1007.83 1007.90 1008.00 1008.15 1008.35 1008.60 1008.89 1009.19 1009.49 1009.74 1009.94 1010.05 1010.09 1010.05
1009.79 1010.13 1010.42 1010.63 1010.72 1010.69 1010.57 1010.37 1010.15 1009.94 1009.76 1009.62 1009.51 1009.42 1009.32 1009.19 1009.01 1008.79 1008.54 1008.28 1008.02 1007.80 1007.62 1007.48 1007.40 1007.34 1007.31 1007.29 1007.28 1007.29 1007.31 1007.38 1007.50 1007.69 1007.93 1008.23 1008.57 1008.92 1009.26 1009.55 1009.78 1009.94 1010.03
1010.15 1010.41 1010.62 1010.74 1010.77 1010.70 1010.55 1010.35 1010.13 1009.91 1009.71 1009.55 1009.39 1009.24 1009.08 1008.89 1008.66 1008.41 1008.13 1007.86 1007.61 1007.39 1007.22 1007.08 1006.99 1006.92 1006.86 1006.80 1006.75 1006.71 1006.69 1006.71 1006.79 1006.94 1007.17 1007.47 1007.83 1008.23 1008.63 1009.01 1009.35 1009.63 1009.84
1010.45 1010.60 1010.71 1010.74 1010.69 1010.58 1010.41 1010.21 1010.00 1009.80 1009.61 1009.42 1009.24 1009.05 1008.83 1008.58 1008.30 1008.00 1007.70 1007.41 1007.15 1006.93 1006.75 1006.61 1006.51 1006.42 1006.33 1006.24 1006.14 1006.05 1005.99 1005.96 1006.00 1006.12 1006.33 1006.63 1007.00 1007.43 1007.89 1008.34 1008.77 1009.15 1009.47
1010.63 1010.68 1010.67 1010.60 1010.48 1010.32 1010.14 1009.95 1009.77 1009.59 1009.41 1009.23 1009.03 1008.80 1008.53 1008.23 1007.90 1007.55 1007.21 1006.89 1006.61 1006.37 1006.18 1006.03 1005.90 1005.79 1005.67 1005.55 1005.42 1005.29 1005.19 1005.14 1005.15 1005.25 1005.45 1005.75 1006.13 1006.58 1007.08 1007.59 1008.08 1008.54 1008.93
1010.69 1010.62 1010.50 1010.34 1010.15 1009.96 1009.77 1009.59 1009.43 1009.27 1009.12 1008.94 1008.73 1008.47 1008.16 1007.82 1007.43 1007.04 1006.65 1006.30 1005.98 1005.72 1005.50 1005.32 1005.16 1005.02 1004.87 1004.72 1004.57 1004.43 1004.32 1004.26 1004.27 1004.37 1004.58 1004.88 1005.28 1005.75 1006.27 1006.81 1007.34 1007.83 1008.27
1010.60 1010.43 1010.22 1009.98 1009.74 1009.52 1009.32 1009.16 1009.02 1008.89 1008.75 1008.57 1008.35 1008.07 1007.73 1007.33 1006.90 1006.46 1006.03 1005.63 1005.27 1004.96 1004.71 1004.49 1004.31 1004.14 1003.97 1003.81 1003.66 1003.52 1003.42 1003.38 1003.42 1003.55 1003.78 1004.11 1004.52 1005.00 1005.52 1006.07 1006.60 1007.11 1007.56
1010.40 1010.16 1009.87 1009.58 1009.31 1009.07 1008.87 1008.72 1008.59 1008.48 1008.34 1008.17 1007.93 1007.62 1007.24 1006.81 1006.33 1005.84 1005.36 1004.92 1004.52 1004.17 1003.88 1003.63 1003.42 1003.23 1003.06 1002.90 1002.76 1002.66 1002.60 1002.61 1002.70 1002.88 1003.14 1003.49 1003.92 1004.40 1004.92 1005.44 1005.95 1006.43 1006.87
1010.11 1009.82 1009.51 1009.19 1008.90 1008.65 1008.46 1008.32 1008.21 1008.09 1007.95 1007.77 1007.50 1007.17 1006.75 1006.27 1005.75 1005.22 1004.70 1004.22 1003.78 1003.40 1003.08 1002.81 1002.59 1002.39 1002.23 1002.10 1002.00 1001.95 1001.95 1002.02 1002.17 1002.40 1002.71 1003.09 1003.52 1003.99 1004.48 1004.97 1005.43 1005.87 1006.26
1009.79 1009.49 1009.16 1008.84 1008.56 1008.33 1008.15 1008.01 1007.90 1007.78 1007.63 1007.41 1007.12 1006.74 1006.28 1005.77 1005.21 1004.64 1004.09 1003.58 1003.12 1002.73 1002.40 1002.12 1001.90 1001.73 1001.59 1001.50 1001.46 1001.47 1001.54 1001.68 1001.89 1002.17 1002.51 1002.90 1003.32 1003.77 1004.21 1004.64 1005.05 1005.42 1005.76
1009.48 1009.19 1008.88 1008.58 1008.32 1008.11 1007.94 1007.81 1007.69 1007.56 1007.37 1007.12 1006.78 1006.36 1005.86 1005.31 1004.72 1004.13 1003.56 1003.04 1002.58 1002.19 1001.87 1001.62 1001.42 1001.28 1001.19 1001.15 1001.17 1001.24 1001.37 1001.57 1001.82 1002.13 1002.49 1002.87 1003.27 1003.67 1004.05 1004.42 1004.75 1005.06 1005.35
1009.20 1008.93 1008.65 1008.39 1008.17 1007.98 1007.83 1007.70 1007.57 1007.41 1007.18 1006.88 1006.50 1006.02 1005.48 1004.89 1004.28 1003.68 1003.11 1002.60 1002.16 1001.80 1001.52 1001.30 1001.15 1001.06 1001.03 1001.04 1001.11 1001.23 1001.40 1001.63 1001.91 1002.22 1002.56 1002.91 1003.27 1003.60 1003.92 1004.21 1004.48 1004.73 1004.96
1008.95 1008.72 1008.48 1008.26 1008.08 1007.92 1007.78 1007.65 1007.50 1007.29 1007.02 1006.67 1006.23 1005.70 1005.12 1004.50 1003.87 1003.27 1002.72 1002.24 1001.84 1001.53 1001.30 1001.14 1001.05 1001.01 1001.03 1001.09 1001.19 1001.34 1001.53 1001.76 1002.03 1002.31 1002.61 1002.91 1003.19 1003.46 1003.71 1003.93 1004.13 1004.33 1004.53
1008.73 1008.53 1008.33 1008.16 1008.00 1007.86 1007.74 1007.59 1007.41 1007.17 1006.84 1006.43 1005.93 1005.36 1004.74 1004.10 1003.47 1002.89 1002.37 1001.93 1001.58 1001.33 1001.16 1001.06 1001.02 1001.04 1001.09 1001.18 1001.30 1001.45 1001.63 1001.83 1002.05 1002.28 1002.51 1002.74 1002.95 1003.15 1003.32 1003.49 1003.65 1003.81 1003.99
1008.50 1008.33 1008.17 1008.02 1007.89 1007.77 1007.64 1007.48 1007.27 1006.98 1006.60 1006.14 1005.59 1004.98 1004.33 1003.68 1003.06 1002.50 1002.02 1001.63 1001.34 1001.15 1001.03 1000.99 1001.00 1001.05 1001.12 1001.21 1001.32 1001.44 1001.57 1001.72 1001.87 1002.03 1002.18 1002.34 1002.48 1002.61 1002.74 1002.86 1003.00 1003.15 1003.33
Thickness
5769 5770 5770 5768 5766 5762 5759 5756 5752 5749 5746 5743 5739 5735 5733 5731 5731 5729 5727 5725 5722 5720 5718 5718 5718 5717 5716 5715 5714 5713 5712 5712 5715 5713 5715 5722 5729 5731 5735 5739 5741 5744 5746
5762 5762 5762 5761 5758 5754 5751 5748 5744 5741 5738 5734 5730 5727 5725 5723 5723 5722 5719 5718 5715 5712 5712 5709 5709 5709 5708 5707 5707 5707 5705 5707 5709 5707 5705 5707 5714 5725 5733 5735 5737 5740 5743
5757 5756 5756 5754 5751 5747 5744 5742 5736 5732 5729 5725 5722 5719 5716 5714 5712 5710 5709 5709 5708 5705 5703 5701 5700 5700 5700 5700 5700 5700 5698 5697 5701 5705 5703 5701 5702 5713 5723 5730 5733 5735 5738
5756 5753 5751 5748 5745 5742 5740 5736 5731 5726 5721 5717 5712 5706 5701 5699 5699 5699 5699 5699 5699 5697 5695 5694 5693 5692 5692 5692 5692 5694 5693 5692 5692 5697 5702 5703 5704 5703 5705 5718 5727 5732 5734
5753 5749 5746 5743 5741 5738 5734 5730 5725 5719 5713 5708 5702 5697 5692 5690 5689 5689 5687 5687 5687 5688 5687 5686 5685 5683 5683 5683 5684 5684 5684 5685 5687 5688 5691 5695 5698 5702 5700 5701 5712 5721 5727
5749 5746 5743 5739 5735 5733 5728 5723 5716 5709 5704 5699 5693 5687 5682 5679 5676 5675 5674 5675 5677 5678 5678 5677 5676 5675 5673 5673 5673 5675 5676 5677 5679 5682 5684 5684 5686 5691 5694 5697 5702 5708 5717
5746 5741 5737 5732 5728 5724 5719 5713 5706 5699 5694 5688 5683 5677 5672 5669 5666 5666 5666 5666 5665 5665 5666 5666 5665 5664 5664 5663 5663 5664 5665 5667 5669 5672 5675 5679 5682 5686 5689 5690 5695 5703 5712
5744 5738 5734 5728 5722 5716 5710 5703 5696 5689 5684 5678 5673 5668 5664 5660 5659 5659 5657 5655 5654 5654 5655 5654 5654 5654 5654 5653 5653 5653 5654 5657 5659 5663 5665 5669 5674 5678 5681 5684 5687 5690 5699
5740 5735 5729 5723 5715 5708 5701 5694 5687 5680 5675 5669 5664 5660 5657 5654 5652 5649 5647 5646 5645 5645 5645 5643 5642 5641 5642 5642 5642 5641 5643 5645 5648 5651 5655 5659 5665 5669 5673 5678 5682 5682 5683
5735 5729 5722 5715 5708 5701 5694 5687 5679 5672 5666 5661 5657 5653 5650 5647 5644 5641 5639 5637 5635 5633 5632 5631 5630 5630 5630 5631 5631 5630 5632 5634 5636 5640 5643 5649 5654 5658 5663 5669 5674 5678 5680
5727 5721 5715 5708 5701 5693 5685 5677 5670 5663 5657 5653 5649 5645 5642 5639 5636 5633 5630 5627 5625 5623 5620 5618 5617 5618 5618 5619 5619 5619 5621 5623 5625 5629 5632 5637 5643 5647 5653 5658 5664 5670 5674
5721 5714 5707 5699 5691 5683 5675 5667 5660 5654 5649 5645 5641 5637 5633 5629 5625 5622 5619 5616 5613 5610 5608 5606 5604 5604 5605 5606 5606 5607 5610 5612 5614 5617 5621 5626 5631 5636 5641 5647 5653 5659 5665
5713 5705 5697 5689 5681 5673 5665 5658 5651 5646 5641 5637 5632 5627 5623 5618 5614 5610 5607 5603 5599 5596 5594 5592 5590 5590 5590 5591 5593 5595 5598 5601 5604 5607 5611 5615 5619 5624 5630 5635 5641 5647 5654
5704 5696 5687 5680 5672 5664 5657 5650 5644 5639 5634 5628 5623 5618 5613 5608 5604 5599 5593 5589 5585 5582 5579 5577 5576 5576 5576 5577 5580 5582 5585 5588 5593 5597 5600 5605 5609 5613 5618 5623 5629 5635 5641
5697 5688 5679 5671 5664 5657 5650 5643 5636 5631 5626 5620 5615 5610 5605 5599 5593 5587 5582 5576 5571 5568 5565 5563 5562 5562 5562 5564 5566 5568 5572 5575 5580 5584 5589 5594 5599 5604 5608 5613 5618 5624 5630
5689 5681 5673 5664 5657 5649 5643 5636 5630 5624 5619 5612 5606 5601 5596 5589 5583 5577 5571 5565 5560 5555 5552 5549 5548 5547 5549 5551 5551 5553 5556 5562 5567 5571 5577 5582 5588 5593 5598 5603 5608 5614 5619
5682 5674 5665 5658 5651 5644 5637 5630 5624 5618 5612 5605 5599 5593 5587 5581 5574 5567 5561 5554 5548 5544 5540 5537 5536 5536 5536 5536 5537 5540 5543 5548 5554 5560 5565 5570 5580 5584 5589 5593 5598 5603 5609
5676 5668 5660 5654 5647 5640 5632 5625 5618 5612 5605 5598 5591 5585 5578 5572 5565 5558 5551 5544 5539 5534 5531 5528 5527 5526 5528 5528 5529 5530 5534 5539 5546 5552 5556 5560 5567 5575 5580 5584 5589 5594 5600
5671 5664 5657 5650 5642 5634 5627 5619 5611 5605 5598 5591 5584 5578 5572 5565 5558 5551 5545 5539 5533 5528 5525 5523 5521 5520 5521 5521 5521 5523 5527 5532 5538 5544 5550 5554 5559 5565 5571 5576 5582 5586 5592
5669 5661 5654 5646 5637 5629 5621 5612 5605 5599 5592 5585 5579 5573 5566 5559 5553 5548 5541 5535 5529 5525 5522 5520 5518 5518 5517 5517 5517 5517 5522 5527 5532 5538 5544 5549 5553 5557 5562 5568 5573 5577 5583
5665 5658 5650 5640 5631 5624 5616 5607 5600 5593 5587 5581 5575 5569 5562 5556 5552 5547 5540 5534 5528 5524 5520 5519 5518 5517 5516 5516 5514 5514 5517 5522 5526 5532 5538 5544 5547 5552 5556 5563 5567 5571 5576
5661 5654 5645 5636 5628 5620 5611 5602 5595 5589 5583 5577 5572 5566 5561 5555 5552 5545 5539 5534 5528 5524 5521 5519 5519 5517 5516 5515 5514 5512 5512 5516 5521 5527 5533 5539 5543 5546 5551 5556 5562 5565 5568
5656 5649 5641 5633 5625 5617 5608 5598 5592 5586 5580 5574 5569 5565 5560 5555 5550 5544 5538 5533 5528 5524 5520 5518 5517 5517 5516 5515 5513 5511 5510 5511 5515 5522 5527 5533 5537 5540 5545 5550 5555 5559 5564
5652 5645 5637 5629 5621 5613 5605 5596 5589 5583 5577 5572 5568 5564 5560 5555 5551 5545 5539 5533 5528 5523 5519 5516 5515 5514 5514 5514 5513 5512 5509 5509 5512 5519 5524 5528 5532 5538 5544 5548 5550 5555 5562
5649 5642 5633 5625 5618 5610 5603 5595 5587 5581 5575 5571 5567 5563 5559 5556 5551 5546 5540 5534 5528 5519 5513 5513 5511 5511 5511 5508 5508 5511 5512 5514 5517 5520 5523 5527 5532 5537 5543 5549 5552 5556 5560
5645 5638 5630 5623 5615 5608 5600 5592 5585 5579 5573 5570 5567 5562 5559 5555 5551 5547 5542 5532 5525 5518 5511 5506 5504 5506 5503 5504 5506 5508 5510 5513 5516 5521 5526 5530 5535 5540 5545 5550 5555 5558 5561